sat.trackr.live / text

‹ back to catalog

ONEWEB-0033

NORAD 45142 · 2020-008M

PAYLOAD ACTIVE UNKNOWN

§ Identity

Operator
Country
UK
Launch date
2020-02-06
Launch site
TYMSC
Launch vehicle
Mass (kg)
RCS (m²)

Purposes: comms

External: N2YO · Heavens-Above · Gunter

§ Orbital elements

Epoch: 2026-05-25T03:29:38.672736Z

Period
109.89 min
Inclination
87.8854°
Eccentricity
0.0001303
Mean motion
13.10377612 rev/d
Perigee alt
1,220.7 km
Apogee alt
1,222.7 km
Semi-major
7,599.8 km
B*
7.8264e-4
RAAN
40.8650°
Arg perigee
77.3902°
Mean anomaly
282.7371°
Rev number
30,519

§ Raw data

ONEWEB-00331 45142U 20008M   26145.14558649  .00000286  00000+0  78264-3 0  99912 45142  87.8854  40.8650 0001303  77.3902 282.7371 13.10377612305195

JSON: /api/v1/satellites/45142 · /tle

For live sub-satellite position, see the globe view (requires WebGL).

§ Visibility from observer

Set your observer location to see the next 7 days of passes ≥ 10°. The values pass through the URL so the page stays shareable.

No JS? Fill the form by hand. The geolocation button needs JavaScript.